Location: Sawyer Lake
(45.2517°N, 88.7550°W)
Time: 14:37:41
(UTC-05:00)

Daily predictions for brighter satellites

Satellite Brightness Start Highest point End
(mag) Time Altitude Azimuth Time Altitude Azimuth Time Altitude Azimuth
Cosmos 2263 Rocket 2.6 20:11:41 10° NNW 20:17:14 49° ENE 20:22:43 10° SE
Cosmos 1300 Rocket 4.4 20:15:29 10° SSE 20:19:11 28° E 20:22:54 10° NNE
NOSS 2-3 (C) 4.4 20:18:26 10° S 20:22:47 38° ESE 20:27:45 10° NE
Cosmos 2322 Rocket 2.4 20:17:46 10° S 20:23:15 50° ESE 20:28:45 10° NE
Cosmos 1140 Rocket 3.7 20:18:27 10° NNW 20:23:43 79° WSW 20:28:57 10° SSE
Tiangong 1 1.6 20:21:23 10° W 20:24:01 37° SSW 20:26:37 10° ESE
Cosmos 614 Rocket 4.0 20:19:41 10° NNW 20:24:49 88° WSW 20:29:58 10° SSE
S3M 4.1 20:18:34 10° N 20:24:50 69° E 20:31:09 10° SSE
Meteor 1-11 Rocket 4.0 20:19:41 10° SSE 20:25:17 51° E 20:30:47 10° NNE
YAOGAN 6 3.8 20:23:01 10° SE 20:25:57 25° ENE 20:28:52 10° NNE
Cosmos 1553 Rocket 4.0 20:19:51 10° N 20:26:03 75° E 20:32:06 10° SSE
USA 215 4.4 20:19:56 10° NE 20:26:04 44° NNW 20:32:11 10° W
ERBS 3.6 20:26:19 10° WSW 20:29:40 44° NW 20:33:01 10° NE
Spot 2 Rocket 3.5 20:27:15 10° SSE 20:32:21 88° ENE 20:37:29 10° NNW
Cosmos 2266 Rocket 4.3 20:26:48 10° SSE 20:32:23 41° E 20:37:59 10° NNE
USA 238 DEB 4.5 20:26:37 10° NNW 20:33:17 42° NE 20:39:58 10° ESE
USA 238 4.5 20:26:43 10° NNW 20:33:23 41° NE 20:40:03 10° ESE
Abrixas rocket 3.1 20:30:14 10° WNW 20:33:25 45° N 20:36:36 10° ENE
Resurs 01 Rocket 1.8 20:29:11 10° S 20:33:37 78° WSW 20:38:07 10° NNW
SL-16 R/B 2.2 20:29:49 10° S 20:35:23 63° ESE 20:41:00 10° NNE
Cosmos 2151 Rocket 3.5 20:36:09 10° S 20:40:32 86° E 20:44:57 10° N
Meteor 1-23 Rocket 4.5 20:35:30 10° N 20:40:55 49° ENE 20:46:18 10° SSE
EXPRESS MD2 2.7 20:38:32 10° WSW 20:41:05 80° SSE 20:45:29 10° ENE
Helios 1A 3.5 20:41:32 10° SE 20:45:32 42° ENE 20:49:34 10° N
ATLAS 3B R/B 3.0 20:41:44 10° NNW 20:48:23 51° NE 20:53:55 14° ESE
ERS-1 Rocket 3.8 20:46:40 12° SE 20:50:37 32° ENE 20:55:04 10° N
Meteor 1-29 4.3 20:49:57 10° NE 20:52:36 21° E 20:54:00 17° SE
Cosmos 1536 Rocket 3.8 20:48:44 10° NNW 20:53:04 72° W 20:57:22 10° S
Cosmos 2360 Rocket 2.7 20:50:50 10° S 20:55:58 38° ESE 21:01:07 10° NE
Cosmos 1980 Rocket 4.0 20:52:07 10° WSW 20:57:15 35° NW 21:02:23 10° NNE
COSMOS 2428 4.1 20:55:48 14° SE 20:58:05 18° E 21:01:50 10° ENE
Lacrosse 5 rocket 3.8 20:56:45 10° W 20:58:22 12° WSW 21:00:00 10° SSW
Cosmos 1741 Rocket 4.2 20:53:12 10° NNW 20:58:26 73° WSW 21:03:40 10° SSE
Cosmos 1939 Rocket 2.8 20:54:43 10° SSE 20:58:42 90° WNW 21:02:38 10° NNW
Cosmos 1536 2.8 20:55:36 10° S 20:59:39 77° E 21:03:44 10° NNE
Envisat 3.4 20:56:37 10° S 21:01:40 66° WSW 21:06:44 10° NNW
NOSS 2-3 (D) 3.8 20:57:47 10° SSW 21:02:28 76° SE 21:08:00 10° NE
Meteor 1-5 Rocket 4.0 21:04:21 10° S 21:09:37 69° E 21:14:54 10° NNE
H-2A R/B 3.3 21:08:23 17° ESE 21:10:49 24° ENE 21:14:47 10° N
SAR-Lupe-4 4.0 21:12:33 25° SE 21:14:16 43° ENE 21:17:42 10° N
NOAA 11 4.3 21:12:03 16° SSE 21:16:24 62° ENE 21:21:50 10° N
CZ-4B DEB 2.5 21:15:44 32° SE 21:16:48 58° ENE 21:19:39 10° N
Meteor 2-4 Rocket 4.2 21:12:16 10° NNW 21:17:45 61° W 21:23:21 10° S
MetOp-A 4.2 21:24:43 22° SE 21:28:10 63° ENE 21:33:28 10° N
Cosmos 405 3.9 21:28:31 30° E 21:28:31 30° E 21:31:41 10° NNE
ATLAS 2AS CENTAUR R/B 3.0 21:21:15 10° SSW 21:29:00 84° SE 21:37:11 10° NE
Helios 1B rocket 2.3 21:25:20 10° NNE 21:29:27 81° ESE 21:33:33 10° SSW
Cosmos 1110 Rocket 3.9 21:25:51 10° SSW 21:30:59 74° ESE 21:36:11 10° NNE
SAR-Lupe-1 4.1 21:29:54 36° SE 21:31:06 58° ENE 21:34:38 10° N
BREEZE M DEB (TANK) 3.1 21:26:16 10° SW 21:33:03 35° SSE 21:33:38 33° SE
SPOT 5 3.3 21:33:37 30° ESE 21:35:30 44° ENE 21:39:54 10° N
CENTAUR R/B 4.4 21:30:27 10° NNW 21:36:48 28° NNE 21:43:21 11° E
Cosmos 1455 Rocket 3.9 21:37:04 30° E 21:37:24 30° E 21:41:18 10° NNE
Cosmos 1066 Rocket 4.4 21:33:33 10° N 21:38:52 52° ENE 21:41:15 31° SE
Lacrosse 5 1.8 21:34:33 10° SW 21:39:38 87° NW 21:44:45 10° NE
Cosmos 1331 Rocket 3.9 21:38:50 10° SSW 21:44:01 85° ESE 21:49:17 10° NNE
SeaSat 1 3.2 21:40:56 10° NNE 21:45:44 54° WNW 21:50:32 10° SW
SL-8 R/B 3.6 21:41:43 10° WNW 21:46:32 78° SSW 21:48:14 40° SE
Atlas Centaur 2 4.3 21:43:56 10° WSW 21:49:05 19° SSW 21:51:31 16° S
Nadezhda 1 Rocket 4.5 21:44:54 10° N 21:50:54 43° ENE 21:53:09 32° ESE
SL-08 RB Rocket 3.7 21:49:38 41° SE 21:51:04 63° ENE 21:55:33 10° N
ARGOS 3.1 21:49:54 31° SSE 21:52:33 82° ENE 21:57:57 10° NNW
Cosmos 1244 Rocket 4.4 21:49:27 14° S 21:54:47 83° E 22:00:56 10° N
Cosmos 1743 4.0 21:56:16 27° ENE 21:56:16 27° ENE 21:58:40 10° NNE
Okean 1 Rocket 4.4 21:51:55 10° SW 21:56:00 39° WNW 22:00:08 10° N
Cosmos 1025 Rocket 4.0 21:53:23 10° NNW 21:57:27 44° W 22:00:09 19° SSW
Okean 2 4.2 21:54:51 10° NNW 21:58:48 47° W 22:00:54 24° SSW
Tiangong 1 3.7 21:57:39 10° WSW 21:57:45 10° SW 21:57:45 10° SW
Cosmos 2263 Rocket 3.9 21:56:09 10° NW 22:00:53 28° WSW 22:05:35 10° SSW
Cosmos 1354 Rocket 4.4 21:56:13 10° NNW 22:01:24 48° ENE 22:02:44 39° ESE
Landsat 7 4.3 22:01:05 39° E 22:01:51 42° ENE 22:06:21 10° N
Cosmos 2278 Rocket 3.2 21:59:53 10° NNW 22:05:02 34° NE 22:06:39 29° E
Cosmos 2322 Rocket 4.2 22:02:37 10° WSW 22:07:33 29° NW 22:12:31 10° N
Cosmos 1844 Rocket 2.6 22:02:38 10° NNW 22:08:22 81° ENE 22:10:10 45° SE
Abrixas rocket 2.6 22:07:04 10° WNW 22:09:53 60° NW 22:09:53 60° NW
CARTOSAT-1 4.4 22:10:33 35° ENE 22:10:33 35° ENE 22:14:26 10° N
Cosmos 1818 3.5 22:10:06 36° S 22:12:08 59° ESE 22:17:30 10° NE
SPOT 1/Viking Rocket 3.5 22:10:41 48° SSE 22:12:09 77° ENE 22:17:24 10° N
SL-08 R/B 4.4 22:09:03 31° S 22:12:12 74° E 22:18:32 10° NNE
Molniya-1 4.2 22:09:58 10° NW 22:12:19 59° WNW 22:12:19 59° WNW
Cosmos 2237 4.2 22:07:53 10° SSW 22:13:35 85° WNW 22:19:19 10° NNE
Cosmos 1975 2.9 22:16:24 60° SW 22:17:00 74° W 22:21:01 10° N
Terra 2.3 22:16:55 42° E 22:17:12 42° ENE 22:21:42 10° N
YAOGAN 11 4.0 22:16:51 64° S 22:17:30 82° WSW 22:21:51 10° NNW
Nimbus 7 Rocket 4.4 22:12:30 10° NNE 22:18:20 60° ESE 22:19:44 47° SSE
SL-16 R/B 4.5 22:15:21 10° WSW 22:19:57 25° NW 22:24:35 10° N
Cosmos 1602 Rocket 4.1 22:16:02 10° N 22:19:50 44° ENE 22:19:50 44° ENE
BREEZE-M DEB 2.8 22:15:07 10° WNW 22:22:26 85° NNE 22:22:33 83° ENE
NOSS 3-2 (A) 3.9 22:14:56 10° NW 22:22:26 86° NE 22:25:38 41° SE
Cosmos 1503 Rocket 4.0 22:17:12 10° NNW 22:22:36 72° ENE 22:23:33 58° SE
H-2A R/B 3.5 22:23:50 26° ENE 22:23:50 26° ENE 22:27:07 10° N
USA 238 DEB 4.1 22:17:36 10° NW 22:24:30 56° WSW 22:27:24 35° S
Cosmos 2219 Rocket 2.2 22:24:25 53° ESE 22:24:33 53° ESE 22:30:03 10° NE
USA 238 4.1 22:17:42 10° NW 22:24:37 57° WSW 22:27:30 35° S
Cosmos 724 4.2 22:19:35 10° NNW 22:25:31 81° NE 22:26:49 56° SE
Meteor 1-12 Rocket 4.3 22:26:33 33° SSW 22:29:14 78° W 22:34:55 10° N
ERS-1 Rocket 4.3 22:26:41 20° SSW 22:29:21 34° W 22:33:54 10° NNW
USA 245 4.4 22:28:31 38° SSW 22:29:52 49° WSW 22:33:57 10° NNW
SL-16 R/B 4.4 22:39:45 11° ENE 22:39:45 11° ENE 22:40:02 10° ENE
ATLAS 3B R/B 3.5 22:32:48 10° NW 22:38:52 38° WSW 22:41:11 29° SSW
Cosmos 2360 Rocket 3.6 22:34:46 10° WSW 22:39:57 37° NW 22:45:10 10° NNE
COSMOS 2428 2.9 22:37:39 20° SW 22:41:42 73° WNW 22:47:27 10° NNE
Cosmos 1626 Rocket 3.7 22:39:39 10° N 22:43:28 68° N 22:43:28 68° N
Cosmos 1844 3.8 22:41:17 10° NNW 22:46:56 67° WSW 22:47:46 59° SSW
Cosmos 1745 Rocket 4.0 22:45:48 41° SSW 22:48:03 74° W 22:54:14 10° N
H-2A R/B 2.7 22:49:01 40° SW 22:50:00 46° W 22:54:48 10° NNW
NOSS 0 Rocket 4.0 22:51:55 59° E 22:51:55 59° E 22:57:47 10° NE
ATLAS CENTAUR R/B 3.5 22:51:15 10° N 22:53:18 17° NNE 22:53:18 17° NNE
Cosmos 1437 Rocket 3.7 22:54:37 48° NW 22:54:37 48° NW 22:57:53 10° N
Cosmos 2333 Rocket 2.1 22:55:01 74° E 22:55:01 74° E 23:00:29 10° NNE
NOSS 3-2 (C) 4.0 22:54:05 10° NW 23:01:34 76° SW 23:03:28 56° SSE
Cosmos 1992 Rocket 4.1 23:06:34 66° NNE 23:06:34 66° NNE 23:11:04 10° NNE
IGS 5A 4.4 23:09:43 45° NW 23:09:43 45° NW 23:12:52 10° NNW
COSMOS 2455 3.6 23:03:39 10° NNW 23:09:19 40° NE 23:10:05 39° ENE
GP-B 3.8 23:06:17 10° N 23:10:00 53° NW 23:10:00 53° NW
Cosmos 2237 Rocket 2.5 23:12:24 55° NE 23:12:24 55° NE 23:16:53 10° NNE
Cosmos 968 Rocket 3.7 23:08:04 10° NNW 23:12:34 63° NNE 23:12:34 63° NNE
Cosmos 1666 4.4 23:14:52 32° NW 23:14:52 32° NW 23:17:33 10° N
Cosmos 1980 3.8 23:18:31 69° NE 23:18:31 69° NE 23:23:32 10° NNE
Lacrosse 5 3.8 23:18:47 10° W 23:23:12 29° NNW 23:27:37 10° NE
CENTAUR R/B 3.1 23:20:59 10° NW 23:28:49 75° NE 23:30:30 59° ESE
NOSS 3-4 (A) 3.6 23:28:46 52° WSW 23:30:23 74° NW 23:36:56 10° NE
NOSS 3-4 (C) 3.6 23:28:58 53° WSW 23:30:29 74° NW 23:37:02 10° NE
ATLAS CENTAUR R/B 3.8 23:17:46 10° NW 23:31:12 50° NNE 23:33:12 37° ENE
Cosmos 2074 Rocket 4.4 23:33:37 50° ENE 23:33:37 50° ENE 23:38:53 10° NNE
SL-08 ROCKET BODY 4.5 23:36:08 64° NE 23:36:08 64° NE 23:41:12 10° NNE
Cosmos 2297 3.9 23:30:54 10° NNW 23:35:58 65° NNE 23:35:58 65° NNE
CZ-4B R/B 4.4 23:36:03 10° NNE 23:39:02 39° NNE 23:39:02 39° NNE
Cosmos 2278 Rocket 3.1 23:43:54 10° NW 23:48:29 40° W 23:48:29 40° W
ALOS 2 4.4 23:51:24 28° NNE 23:51:24 28° NNE 23:53:46 10° N
USA 215 4.3 23:46:20 21° ENE 23:50:12 41° NNE 23:56:15 10° NW
Terra 3.7 23:55:49 22° W 23:55:49 22° W 23:58:54 10° NW
